Location: Newark
(53.6914°N, 19.9392°E)
Time: 08:29:30
(UTC+00:00)

ISS - Visible Passes

Search period start: 30 September 2020 00:00
Search period end: 10 October 2020 00:00
Orbit: 419 x 421 km, 51.6° (Epoch: 30 September)

Date Brightness Start Highest point End Pass type
(mag) Time Alt. Az. Time Alt. Az. Time Alt. Az.
30 Sep -2.6 18:17:38 10° W 18:20:42 33° SSW 18:21:08 31° S visible
01 Oct -2.8 17:30:18 10° W 17:33:30 41° SSW 17:35:41 18° SE visible
01 Oct -0.9 19:07:52 10° WSW 19:08:39 12° WSW 19:08:39 12° WSW visible
02 Oct -3.0 16:42:59 10° W 16:46:16 49° SSW 16:49:32 10° ESE visible
02 Oct -1.7 18:20:08 10° W 18:22:36 19° SSW 18:23:14 18° SSW visible
03 Oct -1.9 17:32:36 10° W 17:35:27 25° SSW 17:37:52 12° SSE visible
04 Oct -2.2 16:45:11 10° W 16:48:15 32° SSW 16:51:18 10° SE visible
05 Oct -1.0 17:35:25 10° WSW 17:37:12 14° SW 17:38:59 10° S visible
06 Oct -1.2 16:47:36 10° W 16:50:03 19° SSW 16:52:30 10° SSE visible
